Location: Carrières
(48.9495°N, 2.0407°E)
Time: 19:31:19
(UTC+00:00)

Altair - Pass Details

Date: 01 May 2024
Orbit: 1502 x 1682 km, 47.2° (Epoch: 21 May)

Event Time Altitude Azimuth Distance (km) Brightness Sun altitude
Rises 23:09:39 0° 289° (WNW) 4,872 10.5 -25.0°
Reaches altitude 10° 23:13:51 10° 274° (W) 3,853 9.7 -25.1°
Maximum altitude 23:20:22 21° 232° (SW) 3,045 8.8 -25.3°
Enters shadow 23:21:11 20° 225° (SW) 3,052 8.7 -25.3°
